Location: La Fredeussais
(48.1780°N, 1.3980°W)
Time: 08:08:22
(UTC+00:00)

Spot 4 - Pass Details

Date: 09 May 2021
Orbit: 703 x 724 km, 98.3° (Epoch: 12 June)

Event Time Altitude Azimuth Distance (km) Brightness Sun altitude
Exits shadow 23:40:08 43° 245° (WSW) 1,021 4.4 -24.0°
Maximum altitude 23:40:36 44° 262° (W) 1,002 4.5 -24.0°
Drops below altitude 10° 23:45:16 10° 334° (NNW) 2,223 7.3 -24.1°
Sets 23:47:39 0° 341° (NNW) 3,147 8.4 -24.1°
